Lid_Strength_Index
6 6 5 4 4 4 3 3 2 2 2 2 2 1 1 1 2 3 2 2 2 2 2 1 1 2 1 2 1 1 1 1 2
7 6 5 4 4 4 3 3 3 2 2 2 2 1 1 1 1 2 1 2 2 2 1 0 1 2 1 1 1 1 1 1 2
7 6 5 4 4 4 3 3 2 2 2 2 2 1 1 1 1 1 1 2 2 2 1 1 1 1 1 0 1 1 1 1 2
6 6 5 5 4 3 3 2 2 2 2 2 2 1 1 1 1 1 2 1 3 1 1 1 1 1 1 1 1 1 1 2 2
6 5 5 4 4 4 3 3 3 3 2 2 2 1 1 1 1 1 1 1 1 1 2 2 1 2 2 2 2 1 1 2 1
6 6 5 4 4 4 4 3 3 3 2 2 2 2 1 2 2 1 2 2 1 1 2 3 1 1 1 1 1 1 1 1 1
6 6 6 5 4 4 4 3 3 3 2 2 2 2 2 2 2 2 1 1 1 1 1 2 1 1 1 1 1 1 1 1 1
7 7 6 5 5 4 4 4 3 3 2 2 2 2 2 2 1 1 2 2 1 1 1 1 1 1 2 2 1 1 1 1 1
7 7 6 5 4 4 4 4 3 3 3 2 2 2 2 2 2 1 1 1 1 1 2 1 2 1 1 2 1 2 3 1 1
7 6 5 5 4 4 4 3 3 3 3 2 2 2 2 2 2 2 2 2 2 2 2 1 1 1 1 1 1 3 4 3 2
6 5 5 5 4 4 3 3 3 2 2 2 2 2 2 2 2 2 2 2 2 2 2 2 2 2 2 2 2 4 5 4 2
5 5 4 4 4 3 3 3 3 3 3 3 3 3 2 2 2 2 2 2 2 2 2 2 2 2 2 2 2 5 5 5 3
5 5 4 4 3 3 3 3 2 3 3 3 3 3 2 2 2 2 2 2 2 3 2 2 2 2 2 3 2 4 5 5 2
4 4 4 4 3 3 3 3 3 3 3 3 2 2 2 2 2 2 2 2 2 3 3 3 3 3 3 3 3 2 5 7 3
5 5 4 4 4 4 3 2 3 3 3 2 2 2 2 2 2 1 2 2 3 3 3 3 3 4 4 2 3 5 7 7 7
5 5 5 4 4 4 3 3 2 3 3 2 2 2 2 2 3 2 3 4 4 4 3 4 4 4 4 3 3 2 7 8 7
5 6 5 5 4 4 4 3 2 2 2 2 2 3 3 3 3 4 4 4 3 3 4 4 3 4 4 5 5 4 4 4 4
5 5 4 4 5 4 4 3 3 2 2 2 3 4 4 5 5 4 5 4 5 3 3 4 3 4 4 5 5 5 7 7 6
4 5 4 4 4 3 3 3 3 2 2 3 4 5 5 5 5 5 3 3 5 12 12 13 13 12 6 6 10 11 11 11 11
5 4 4 4 4 3 3 4 4 4 4 4 4 4 5 5 4 3 3 3 4 4 9 13 14 14 13 11 9 11 12 12 12